[[{"header":{"parameterUnit":"m.s-1","parameterCategory":1,"la1":30.2991,"la2":30.254,"lo1":-89.0895,"lo2":-89.0444,"dy":0.0017,"dx":0.0017,"nx":28,"ny":28,"refTime":"2025-03-26T09:00:00:Z","depth":0,"parameterNumber":2,"parameterNumberName":"U-component_of_WINDS"},"data":[0,0,0,0,0,0,0,0,0,0,0,0,0,0,0,0,0,0,0,0,0,0,0,0,0,0,0,0,0,0,0,0,0,0,0,0,0,0,0,0,0,0,0,0,0,0,0,0,0,0,0,0,0,0,0,0,0,0,0.2138,0.2138,0,0.2095,0.2094,0.2094,0.2053,0.2052,0.2052,0.2051,0.2012,0.2011,0.2011,0,0,0,0,0,0,0,0,0,0,0,0,0,0.2192,0.2191,0.2138,0.2138,0.2137,0.2095,0.2094,0.2093,0.2053,0.2052,0.2052,0.2051,0.2012,0.2011,0.2011,0,0,0,0,0,0,0,0,0,0,0,0,0,0.2161,0.2191,0.2138,0.2112,0.2109,0.2095,0.2094,0.2093,0.2053,0.2052,0.2052,0.2051,0.2012,0.2011,0.201,0.2021,0,0,0.2008,0.2007,0,0,0,0,0,0,0,0,0.2162,0.2159,0.2116,0.2114,0.211,0.2078,0.2098,0.2069,0.2053,0.2075,0.2051,0.2051,0.2035,0.2032,0.2026,0.2019,0.2017,0.2008,0.2007,0.2007,0.2007,0,0,0,0,0,0,0,0.2165,0.216,0.2121,0.2116,0.2112,0.2104,0.2098,0.2093,0.206,0.2073,0.207,0.2065,0.2033,0.2027,0.2024,0.2016,0.2008,0.2007,0.2006,0.2006,0.2017,0.2017,0,0,0,0,0,0,0.217,0.2162,0.2123,0.212,0.2135,0.2103,0.2097,0.209,0.206,0.2054,0.2065,0.2063,0.2029,0.2026,0.2023,0.2034,0.2007,0.2006,0.2006,0.2016,0.2017,0.2018,0,0,0,0,0,0,0.2172,0.2167,0.2124,0.214,0.2134,0.2103,0.2095,0.2089,0.2082,0.2054,0.2049,0.2064,0.2028,0.2024,0.2021,0.2032,0.2006,0.2005,0.2015,0.2016,0.2017,0.2055,0,0,0,0,0,0,0.2173,0.2168,0.217,0.2141,0.2133,0.2122,0.2095,0.2089,0.208,0.2077,0.2052,0.2047,0.2027,0.2023,0.202,0.203,0.2004,0.2014,0.2015,0.2017,0.2053,0.2057,0.2061,0,0,0,0,0,0.2175,0.2183,0.217,0.2166,0.2135,0.2123,0.2119,0.2094,0.2081,0.2085,0.2066,0.2048,0.2031,0.2023,0.202,0.2029,0.2013,0.2015,0.2017,0.2051,0.2056,0.2061,0,0,0,0,0,0,0.2217,0.2179,0.2164,0.2163,0.2146,0.2116,0.2119,0.2101,0.2089,0.2086,0.2058,0.2052,0.2053,0.2041,0.2033,0.2038,0.2019,0.2021,0.2046,0.2051,0.2056,0.2059,0.2003,0,0,0,0,0,0.2226,0.2217,0.2185,0.2187,0.2179,0.215,0.2144,0.2126,0.2108,0.2102,0.2083,0.2068,0.2059,0.2055,0.2045,0.205,0.2045,0.2055,0.206,0.2063,0.2065,0.2068,0.2073,0.2023,0.2023,0.2023,0,0,0.2244,0.2222,0.2219,0.2194,0.2179,0.2173,0.2145,0.2139,0.2134,0.2101,0.2097,0.2083,0.2065,0.2066,0.2066,0.2056,0.2077,0.2065,0.2069,0.2069,0.2071,0.2075,0.208,0.2025,0.2024,0.2024,0,0,0.2275,0.2257,0.2257,0.2242,0.2219,0.2199,0.22,0.2172,0.2161,0.2156,0.2131,0.2126,0.2111,0.2099,0.2091,0.2117,0.21,0.2115,0.2138,0.2141,0.2145,0.2148,0.2159,0.2163,0.2116,0.2116,0.2116,0,0.2302,0.2289,0.2259,0.2254,0.2245,0.2213,0.2214,0.2202,0.2177,0.2173,0.2161,0.2142,0.2127,0.2126,0.2132,0.2126,0.2127,0.2118,0.2146,0.2149,0.2152,0.2162,0.2166,0.2118,0.2118,0.2118,0.2118,0,0.2324,0.2315,0.2318,0.2293,0.2284,0.2282,0.2254,0.2249,0.2232,0.2214,0.2211,0.2191,0.2178,0.2176,0.216,0.2173,0.2167,0.2151,0.2132,0.2159,0.2168,0.2172,0.2121,0.2121,0.212,0.2119,0,0,0.2381,0.2339,0.2341,0.233,0.2302,0.2296,0.2293,0.2277,0.2274,0.2258,0.2256,0.2244,0.2229,0.222,0.2202,0.2205,0.2228,0.2189,0.2188,0.2198,0.2243,0.2257,0.2261,0.2216,0.2216,0.2217,0.2245,0,0.2409,0.24,0.2373,0.2373,0.2366,0.2335,0.2333,0.2316,0.23,0.2292,0.2275,0.2267,0.2247,0.2242,0.2243,0.2225,0.2237,0.2222,0.2216,0.2216,0.2223,0.2266,0.228,0.2307,0.2248,0.2249,0.2249,0,0.244,0.2424,0.2423,0.2395,0.2391,0.2389,0.2374,0.2366,0.2347,0.2335,0.2325,0.2304,0.2301,0.2282,0.2278,0.2269,0.2265,0.2256,0.2256,0.2256,0.2236,0.2269,0.2315,0.232,0.2254,0.2254,0.2253,0,0.2484,0.2463,0.246,0.2451,0.2418,0.2417,0.2404,0.2384,0.2377,0.2363,0.2358,0.2345,0.2339,0.233,0.2307,0.2295,0.2307,0.2285,0.2298,0.2299,0.2304,0.2304,0.2353,0.2298,0.2298,0.2298,0.2298,0,0.2519,0.252,0.2479,0.2478,0.2478,0.2448,0.245,0.2434,0.2416,0.2412,0.2384,0.2382,0.235,0.2344,0.2327,0.2327,0.2324,0.2316,0.2311,0.2319,0.2321,0.2318,0.2316,0.2299,0.2299,0.2299,0.2298,0,0.257,0.2542,0.2537,0.2505,0.2497,0.2499,0.2473,0.2471,0.2452,0.2447,0.2445,0.2416,0.2407,0.2383,0.2369,0.2357,0.2363,0.2354,0.237,0.2367,0.2382,0.2382,0.2432,0.2438,0.2378,0.2378,0.2379,0,0.2595,0.2595,0.2562,0.2557,0.2544,0.2535,0.2527,0.2497,0.249,0.2468,0.2469,0.2458,0.2448,0.2436,0.2415,0.2404,0.2395,0.2413,0.2394,0.2402,0.2398,0.2399,0.2399,0.2418,0.2419,0.242,0.242,0,0.2643,0.2629,0.2617,0.2601,0.2591,0.2577,0.2562,0.256,0.2526,0.252,0.251,0.2501,0.2486,0.2476,0.2462,0.2449,0.2431,0.2426,0.2429,0.2438,0.2448,0.2445,0.2383,0.2426,0.2425,0.2425,0.2425,0.2424,0.2683,0.2682,0.2659,0.2647,0.2631,0.2618,0.2614,0.2594,0.2584,0.2568,0.2551,0.2544,0.2525,0.2503,0.2492,0.2487,0.2477,0.248,0.2482,0.2484,0.2488,0.2447,0.2484,0.2484,0.2484,0.2484,0.2483,0,0.2732,0.2715,0.2704,0.2682,0.2673,0.2653,0.2635,0.2629,0.2622,0.2605,0.2595,0.2584,0.2574,0.2551,0.2539,0.2539,0.253,0.2538,0.2539,0.2536,0.2497,0.2497,0.2545,0.2545,0.2545,0.2545,0.2545,0.2545,0.2756,0.2753,0.2736,0.2726,0.2709,0.27,0.2691,0.2679,0.2665,0.2654,0.2644,0.2629,0.261,0.2596,0.2587,0.258,0.2579,0.2589,0.258,0.2545,0.2539,0.2533,0.2533,0.2588,0.2588,0.262,0.262,0.2621]},{"header":{"parameterUnit":"m.s-1","parameterCategory":1,"la1":30.2991,"la2":30.254,"lo1":-89.0895,"lo2":-89.0444,"dy":0.0017,"dx":0.0017,"nx":28,"ny":28,"refTime":"2025-03-26T09:00:00:Z","depth":0,"parameterNumber":3,"parameterNumberName":"V-component_of_WINDS"},"data":[0,0,0,0,0,0,0,0,0,0,0,0,0,0,0,0,0,0,0,0,0,0,0,0,0,0,0,0,0,0,0,0,0,0,0,0,0,0,0,0,0,0,0,0,0,0,0,0,0,0,0,0,0,0,0,0,0,0,-0.3309,-0.3309,0,-0.3343,-0.3344,-0.3344,-0.3376,-0.3377,-0.3377,-0.3378,-0.3414,-0.3415,-0.3415,0,0,0,0,0,0,0,0,0,0,0,0,0,-0.3275,-0.3276,-0.3309,-0.3309,-0.331,-0.3343,-0.3344,-0.3344,-0.3376,-0.3377,-0.3377,-0.3378,-0.3414,-0.3415,-0.3415,0,0,0,0,0,0,0,0,0,0,0,0,0,-0.3298,-0.3276,-0.3309,-0.333,-0.3332,-0.3343,-0.3344,-0.3344,-0.3376,-0.3377,-0.3377,-0.3378,-0.3414,-0.3415,-0.3415,-0.3409,0,0,-0.3418,-0.3418,0,0,0,0,0,0,0,0,-0.3297,-0.3299,-0.3326,-0.3329,-0.3331,-0.3356,-0.3345,-0.3366,-0.3376,-0.336,-0.3378,-0.3378,-0.3394,-0.3397,-0.3402,-0.341,-0.3412,-0.3418,-0.3419,-0.3419,-0.3419,0,0,0,0,0,0,0,-0.3295,-0.3298,-0.3323,-0.3327,-0.333,-0.3339,-0.3343,-0.3349,-0.3373,-0.3361,-0.3363,-0.3367,-0.3396,-0.3401,-0.3403,-0.3413,-0.3418,-0.3419,-0.342,-0.342,-0.3422,-0.3421,0,0,0,0,0,0,-0.329,-0.3296,-0.3322,-0.3324,-0.3315,-0.3339,-0.3343,-0.3348,-0.3373,-0.3378,-0.3366,-0.3368,-0.3399,-0.3402,-0.3405,-0.3401,-0.3419,-0.342,-0.342,-0.3422,-0.3422,-0.3421,0,0,0,0,0,0,-0.3289,-0.3292,-0.332,-0.3311,-0.3315,-0.3339,-0.3343,-0.3348,-0.3353,-0.3377,-0.3382,-0.3367,-0.34,-0.3403,-0.3408,-0.3403,-0.342,-0.3421,-0.3423,-0.3422,-0.3421,-0.3393,0,0,0,0,0,0,-0.3288,-0.3291,-0.3288,-0.331,-0.3315,-0.3322,-0.3343,-0.3348,-0.3355,-0.3357,-0.3379,-0.3384,-0.3401,-0.3407,-0.3409,-0.3404,-0.3422,-0.3423,-0.3422,-0.3421,-0.3394,-0.3391,-0.3388,0,0,0,0,0,-0.3286,-0.3278,-0.3287,-0.329,-0.3311,-0.3322,-0.3325,-0.3344,-0.3354,-0.3352,-0.3368,-0.3383,-0.3403,-0.3407,-0.341,-0.3405,-0.3424,-0.3423,-0.3422,-0.3395,-0.3392,-0.3388,0,0,0,0,0,0,-0.3254,-0.3281,-0.3292,-0.329,-0.3303,-0.3327,-0.3324,-0.3339,-0.335,-0.3352,-0.3376,-0.3381,-0.3384,-0.3395,-0.3399,-0.3402,-0.3416,-0.3415,-0.3395,-0.3391,-0.3388,-0.3386,-0.3423,0,0,0,0,0,-0.3246,-0.3251,-0.3275,-0.3271,-0.3278,-0.33,-0.3305,-0.3319,-0.3334,-0.334,-0.3356,-0.337,-0.3381,-0.3386,-0.3397,-0.3396,-0.3403,-0.3395,-0.3392,-0.3389,-0.3389,-0.3392,-0.339,-0.3417,-0.3417,-0.3417,0,0,-0.3231,-0.3246,-0.3248,-0.3265,-0.3277,-0.3284,-0.3304,-0.3309,-0.3315,-0.3341,-0.3347,-0.336,-0.3378,-0.3381,-0.3383,-0.339,-0.3383,-0.3388,-0.3385,-0.3386,-0.3391,-0.3388,-0.3386,-0.3417,-0.3417,-0.3417,0,0,-0.3206,-0.3218,-0.3217,-0.3229,-0.3247,-0.3263,-0.3263,-0.3285,-0.3295,-0.3301,-0.3322,-0.3329,-0.3345,-0.3358,-0.3367,-0.3351,-0.3366,-0.3354,-0.3338,-0.3342,-0.334,-0.3338,-0.3334,-0.3333,-0.3353,-0.3353,-0.3353,0,-0.3185,-0.3194,-0.3215,-0.322,-0.3228,-0.3252,-0.3254,-0.3264,-0.3285,-0.3291,-0.3299,-0.3321,-0.3335,-0.3343,-0.3339,-0.3345,-0.3347,-0.3351,-0.3338,-0.3336,-0.3335,-0.3332,-0.3331,-0.3351,-0.3351,-0.3352,-0.3352,0,-0.3169,-0.3175,-0.3173,-0.3193,-0.3201,-0.3204,-0.3227,-0.3233,-0.3247,-0.3262,-0.327,-0.3288,-0.3304,-0.3306,-0.332,-0.3317,-0.3322,-0.3333,-0.3347,-0.3331,-0.3329,-0.3327,-0.3349,-0.335,-0.335,-0.3351,0,0,-0.3124,-0.3157,-0.3156,-0.3167,-0.319,-0.3196,-0.3201,-0.3217,-0.3222,-0.3236,-0.3243,-0.3257,-0.3269,-0.3279,-0.3295,-0.3297,-0.3287,-0.3309,-0.331,-0.3306,-0.3288,-0.328,-0.3278,-0.3297,-0.3297,-0.3297,-0.3288,0,-0.3105,-0.3115,-0.3135,-0.3139,-0.3147,-0.3172,-0.3177,-0.3192,-0.3207,-0.3217,-0.3234,-0.3245,-0.3259,-0.3265,-0.3269,-0.3287,-0.3284,-0.3288,-0.3305,-0.3306,-0.3301,-0.3277,-0.3268,-0.3258,-0.3287,-0.3286,-0.3286,0,-0.3083,-0.3097,-0.3102,-0.3127,-0.3132,-0.3135,-0.3153,-0.3161,-0.3181,-0.3192,-0.3204,-0.3222,-0.3231,-0.3243,-0.3258,-0.326,-0.3268,-0.3279,-0.3279,-0.3282,-0.3295,-0.3281,-0.3255,-0.3254,-0.3285,-0.3285,-0.3285,0,-0.3053,-0.3072,-0.3079,-0.3087,-0.3116,-0.3119,-0.3131,-0.3151,-0.316,-0.3176,-0.3182,-0.3199,-0.3208,-0.3221,-0.3244,-0.325,-0.3256,-0.327,-0.3267,-0.3267,-0.3268,-0.3267,-0.3244,-0.3271,-0.3271,-0.3271,-0.3271,0,-0.303,-0.3033,-0.3066,-0.307,-0.3074,-0.3099,-0.3103,-0.3118,-0.3136,-0.3145,-0.3167,-0.3175,-0.3203,-0.3215,-0.3233,-0.3243,-0.3247,-0.3257,-0.3262,-0.3256,-0.3255,-0.3262,-0.3264,-0.3271,-0.3271,-0.3271,-0.3271,0,-0.2997,-0.3019,-0.3028,-0.3055,-0.3062,-0.3065,-0.3089,-0.3095,-0.3112,-0.3123,-0.3127,-0.3154,-0.317,-0.3193,-0.3215,-0.3227,-0.3236,-0.3243,-0.3229,-0.3232,-0.3229,-0.3229,-0.321,-0.321,-0.3235,-0.3235,-0.3235,0,-0.2982,-0.2985,-0.3013,-0.302,-0.3032,-0.3043,-0.3053,-0.3078,-0.3088,-0.3112,-0.3115,-0.3132,-0.3147,-0.3171,-0.3194,-0.3212,-0.3221,-0.3213,-0.3223,-0.3218,-0.3223,-0.3223,-0.3224,-0.321,-0.321,-0.321,-0.3209,0,-0.2954,-0.2965,-0.2978,-0.2995,-0.3006,-0.3021,-0.3037,-0.3042,-0.3071,-0.3081,-0.3097,-0.3109,-0.3132,-0.315,-0.3172,-0.3186,-0.3203,-0.3206,-0.3207,-0.3201,-0.3193,-0.3199,-0.3224,-0.3206,-0.3207,-0.3207,-0.3207,-0.3207,-0.293,-0.2935,-0.2956,-0.2971,-0.2986,-0.3001,-0.3008,-0.3027,-0.3041,-0.3062,-0.3076,-0.3092,-0.3114,-0.3145,-0.3159,-0.3173,-0.318,-0.318,-0.3181,-0.3181,-0.3179,-0.319,-0.3177,-0.3177,-0.3177,-0.3177,-0.3177,0,-0.2905,-0.292,-0.2933,-0.2956,-0.2968,-0.2982,-0.3002,-0.3011,-0.3025,-0.3044,-0.3059,-0.3079,-0.3096,-0.3121,-0.3141,-0.3148,-0.3156,-0.3152,-0.3153,-0.3156,-0.3171,-0.3169,-0.3145,-0.3145,-0.3145,-0.3145,-0.3145,-0.3145,-0.2893,-0.2903,-0.2917,-0.2935,-0.2951,-0.2966,-0.2977,-0.2992,-0.3007,-0.3028,-0.3043,-0.3059,-0.3081,-0.3103,-0.3121,-0.3128,-0.3135,-0.3129,-0.3139,-0.3152,-0.3155,-0.3158,-0.3156,-0.313,-0.313,-0.3123,-0.3123,-0.3123]}]]